K0CPM-2 Weather Reports


Display with metric or nautical units.
time (UTC)temp
F
wind
direction
speed
MPH
gust
MPH
rain 1hr
in
rain 24hr
in
rain mn
in
humidity
%
barometer
mb
20260508074544 71 169 0.0 1.0 0.00 0.03 0.00 89 1010.9
20260508073043 72 156 0.0 1.0 0.00 0.03 0.00 89 1010.5
20260508071542 72 155 0.0 0.0 0.00 0.03 0.00 88 1010.5
20260508070043 72 165 0.0 1.0 0.00 0.03 0.00 88 1010.4
20260508064539 72 153 0.0 1.0 0.00 0.03 0.00 89 1011.0
20260508063039 72 173 0.0 0.0 0.00 0.03 0.00 88 1010.9
20260508061537 72 155 0.0 0.0 0.00 0.03 0.00 88 1010.9
20260508060031 72 169 0.0 0.0 0.00 0.03 0.00 88 1010.9
20260508054527 72 162 0.0 1.0 0.00 0.03 0.00 89 1011.4
20260508053023 72 165 0.0 0.0 0.00 0.03 0.00 89 1011.3
20260508051519 72 183 0.0 1.0 0.00 0.03 0.00 89 1011.4
20260508050016 72 166 0.0 0.0 0.00 0.03 0.00 89 1011.6
20260508044515 72 156 0.0 0.0 0.00 0.03 0.03 89 1011.6
20260508043015 72 166 0.0 1.0 0.00 0.03 0.03 88 1011.8
20260508041512 73 177 0.0 2.0 0.00 0.03 0.03 87 1011.9
20260508040013 73 176 0.0 1.0 0.00 0.03 0.03 87 1011.6
20260508034516 73 167 0.0 3.0 0.00 0.03 0.03 87 1012.1
20260508033017 74 158 0.0 2.0 0.00 0.03 0.03 86 1012.0
20260508031510 74 191 0.0 3.0 0.00 0.03 0.03 85 1012.3
20260508030008 74 165 0.0 1.0 0.00 0.03 0.03 85 1011.9
20260508024510 75 174 0.0 4.0 0.00 0.03 0.03 84 1011.7
20260508023016 75 167 0.0 3.0 0.00 0.03 0.03 84 1011.6
20260508021506 75 184 0.0 3.0 0.00 0.03 0.03 85 1011.4
20260508020005 75 178 0.0 0.0 0.00 0.03 0.03 85 1011.4
20260508014506 75 155 0.0 0.0 0.00 0.03 0.03 85 1011.0
20260508013004 75 169 0.0 1.0 0.00 0.03 0.03 86 1011.1
20260508011503 75 160 0.0 0.0 0.00 0.03 0.03 87 1010.8
20260508010002 75 113 0.0 4.0 0.00 0.03 0.03 86 1010.9
20260508004504 75 176 0.0 2.0 0.00 0.03 0.03 86 1010.4
20260508003001 76 158 0.0 1.0 0.00 0.03 0.03 86 1010.5
20260508001501 76 145 0.0 3.0 0.00 0.03 0.03 85 1010.5
20260507234600 76 124 0.0 2.0 0.00 0.03 0.03 84 1010.5
20260507233103 76 149 0.0 1.0 0.00 0.03 0.03 83 1010.3
20260507231601 76 172 0.0 2.0 0.00 0.03 0.03 82 1010.4
20260507230100 77 166 0.0 2.0 0.00 0.03 0.03 80 1010.6
20260507224605 78 155 0.0 2.0 0.00 0.03 0.03 78 1010.5
20260507223100 79 159 0.0 3.0 0.00 0.03 0.03 76 1010.2
20260507221555 79 173 0.0 1.0 0.00 0.03 0.03 78 1010.3
20260507220052 79 172 0.0 4.0 0.00 0.03 0.03 79 1010.1
20260507214552 77 149 0.0 1.0 0.00 0.03 0.03 81 1010.1
20260507213051 76 160 0.0 1.0 0.00 0.03 0.03 83 1010.0
20260507211551 75 174 0.0 1.0 0.00 0.03 0.03 84 1010.3
20260507210112 75 184 0.0 2.0 0.00 0.03 0.03 85 1010.3
20260507204553 74 129 0.0 1.0 0.00 0.03 0.03 85 1010.4
20260507203051 74 169 0.0 3.0 0.00 0.03 0.03 86 1010.4
20260507201546 74 156 0.0 2.0 0.00 0.03 0.03 85 1010.5
20260507200100 74 163 0.0 4.0 0.00 0.03 0.03 84 1010.5
20260507194546 75 117 0.0 2.0 0.00 0.03 0.03 84 1010.6
20260507193106 75 190 0.0 3.0 0.00 0.03 0.03 84 1010.7
20260507191553 75 178 0.0 3.0 0.00 0.03 0.03 85 1010.8
20260507190044 74 118 0.0 2.0 0.00 0.03 0.03 87 1010.9
20260507184543 74 188 0.0 3.0 0.00 0.03 0.03 84 1011.0
20260507183049 74 175 0.0 4.0 0.00 0.03 0.03 87 1011.1
20260507181541 73 129 0.0 2.0 0.00 0.03 0.03 89 1011.4
20260507180040 71 183 0.0 4.0 0.00 0.03 0.03 91 1011.4
20260507174540 71 186 0.0 3.0 0.00 0.03 0.03 92 1011.5
20260507173043 71 152 1.0 3.0 0.00 0.03 0.03 92 1011.5
20260507171541 71 152 0.0 4.0 0.00 0.03 0.03 92 1011.7
20260507170038 72 81 1.0 5.0 0.00 0.03 0.03 90 1011.8
20260507164539 72 138 0.0 2.0 0.00 0.03 0.03 91 1011.8
20260507163038 72 147 0.0 2.0 0.00 0.03 0.03 92 1011.7
20260507161536 72 135 0.0 2.0 0.00 0.03 0.03 93 1011.8
20260507160056 71 83 0.0 3.0 0.00 0.03 0.03 93 1011.9
20260507154536 71 155 0.0 4.0 0.00 0.03 0.03 94 1011.8
20260507153034 72 129 0.0 4.0 0.00 0.03 0.03 94 1011.7
20260507151532 72 105 1.0 4.0 0.00 0.03 0.03 94 1011.7
20260507150030 72 135 0.0 4.0 0.01 0.03 0.03 94 1011.7
20260507144541 72 155 0.0 4.0 0.02 0.03 0.03 94 1011.5
20260507143025 73 129 1.0 4.0 0.03 0.03 0.03 95 1011.3
20260507141527 73 158 0.0 2.0 0.03 0.03 0.03 95 1011.2
20260507140023 74 129 0.0 4.0 0.01 0.01 0.01 94 1011.2
20260507134521 75 141 1.0 6.0 0.01 0.01 0.01 92 1011.2
20260507133015 77 172 1.0 5.0 0.00 0.00 0.00 95 1010.6
20260507131517 77 111 0.0 3.0 0.00 0.00 0.00 95 1010.7
20260507130025 77 81 0.0 3.0 0.00 0.00 0.00 95 1010.6
20260507124516 77 139 1.0 4.0 0.00 0.00 0.00 95 1010.4
20260507123009 77 6 1.0 4.0 0.00 0.00 0.00 95 1010.2
20260507121508 77 155 0.0 3.0 0.00 0.00 0.00 95 1010.1
20260507120010 77 131 0.0 4.0 0.00 0.00 0.00 95 1009.9
20260507114605 77 242 1.0 4.0 0.00 0.01 0.00 95 1009.5
20260507113100 77 340 2.0 4.0 0.00 0.01 0.00 95 1009.4
20260507111603 77 122 2.0 5.0 0.00 0.01 0.00 95 1009.2
20260507110058 77 289 1.0 4.0 0.00 0.01 0.00 95 1009.0
20260507104556 77 127 1.0 4.0 0.00 0.01 0.00 95 1008.9
20260507103055 77 141 0.0 3.0 0.00 0.01 0.00 94 1008.9
20260507101612 77 98 1.0 3.0 0.00 0.01 0.00 94 1008.7
20260507100053 77 110 0.0 2.0 0.00 0.01 0.00 94 1008.8
20260507094552 77 40 0.0 3.0 0.00 0.01 0.00 94 1008.6
20260507093057 77 111 1.0 3.0 0.00 0.01 0.00 93 1008.5
20260507091552 0 0.0 0.0 0.00 0.01 0.00 1008.5
20260507090052 0 0.0 0.0 0.00 0.01 0.00 1008.6
20260507084550 76 65 0.0 2.0 0.00 0.01 0.00 93 1008.4
20260507083049 76 70 0.0 2.0 0.00 0.01 0.00 93 1008.4
20260507081547 76 349 0.0 2.0 0.00 0.01 0.00 93 1008.5
20260507080046 76 53 0.0 3.0 0.00 0.01 0.00 93 1008.6